Location: Unspecified
(0.0000°N, 0.0000°E)
Time: 23:44:48
(UTC+02:00)

Cosmos 1833 Rocket - Visible Passes

Search period start: 31 August 2016 00:00
Search period end: 10 September 2016 00:00
Orbit: 833 x 840 km, 71.0° (Epoch: 31 August)

Date Brightness Start Highest point End Pass type
(mag) Time Alt. Az. Time Alt. Az. Time Alt. Az.
31 Aug 3.6 05:40:47 43° ENE 05:40:47 43° ENE 05:45:10 10° NNE visible
31 Aug 4.5 07:22:35 10° W 07:23:27 11° WNW 07:24:36 10° WNW visible
01 Sep 4.5 05:25:50 26° NE 05:25:50 26° NE 05:28:24 10° NE visible
01 Sep 4.5 07:07:37 12° WNW 07:07:37 12° WNW 07:08:57 10° NW visible
02 Sep 5.2 05:10:45 14° NE 05:10:45 14° NE 05:11:37 10° NE visible
02 Sep 4.7 06:52:31 11° NW 06:52:31 11° NW 06:52:55 10° NW visible
